Temperature
14 13 13 13 13 13 13 13 12 12 12 12 12 12 12 12 12 12 12 12 12 12 12 12 12 12 13 13 13 13 13 13 14 14 14 14 14 14 14 14 15 15 15
14 13 13 13 13 13 13 13 12 12 12 12 12 12 12 12 12 12 12 12 12 12 12 12 12 12 12 13 13 13 13 13 13 13 13 13 13 13 14 14 14 14 15
14 14 13 13 13 13 13 13 12 13 12 12 12 12 12 12 12 12 12 12 12 12 12 12 12 12 12 12 12 13 13 13 13 13 13 13 13 13 13 14 14 14 14
14 14 14 13 13 13 13 13 13 13 12 12 12 12 12 12 12 12 12 12 12 12 12 12 12 12 12 12 12 12 12 12 12 13 13 13 13 13 13 13 13 14 14
14 14 14 14 13 13 13 13 13 13 13 12 12 12 12 12 12 12 12 12 12 12 12 12 12 12 12 12 12 12 12 12 12 12 12 13 13 13 13 13 13 13 13
14 14 14 14 14 14 13 13 13 13 13 13 13 13 13 13 13 13 12 12 12 12 12 12 12 12 12 12 13 12 12 12 12 12 12 12 12 12 12 12 12 13 13
15 14 14 14 14 14 14 13 13 13 13 13 13 13 13 13 13 13 13 12 12 12 12 12 12 12 12 12 12 12 12 12 12 12 12 12 12 12 12 12 12 12 12
15 14 14 14 14 14 14 14 14 13 13 13 13 13 13 13 13 13 13 12 12 12 12 12 12 12 12 12 12 12 12 12 12 12 12 12 12 12 12 12 12 12 12
15 15 14 14 14 14 14 14 14 13 13 13 13 13 13 13 13 13 13 12 12 12 12 12 12 12 12 12 12 12 12 12 12 12 12 12 12 12 12 12 12 12 12
15 15 15 15 15 14 14 14 14 14 14 13 13 13 13 13 13 13 13 13 12 12 12 12 12 12 12 12 12 12 12 12 12 12 12 12 12 12 12 12 12 12 12
16 15 15 15 15 14 14 14 14 14 14 13 13 13 13 13 13 13 13 13 12 12 12 12 12 12 12 12 12 12 12 12 12 12 11 12 12 12 12 12 12 12 12
16 15 15 15 14 14 14 14 14 14 13 13 13 13 13 13 13 13 13 13 13 12 12 12 12 12 12 12 12 12 12 12 12 11 11 11 11 11 11 11 11 11 11
16 15 15 15 14 14 14 14 13 13 13 13 13 13 12 12 12 13 13 13 13 12 12 12 12 12 12 12 12 12 12 11 11 11 11 11 11 11 11 11 11 11 11
16 15 15 14 14 14 14 13 13 13 13 12 12 12 12 12 12 12 12 12 12 12 12 12 12 12 12 12 12 11 11 11 11 11 11 11 11 11 11 11 11 11 11
15 15 14 14 14 13 13 13 13 13 13 13 12 12 12 12 12 12 12 12 12 12 12 11 11 11 11 11 11 11 11 11 11 11 11 10 10 10 10 10 10 10 10
15 14 14 14 13 13 13 13 13 13 13 12 12 12 12 12 12 12 12 12 12 11 11 11 10 10 10 10 10 10 10 10 10 10 10 10 10 10 10 10 10 10 10
15 14 14 13 13 13 12 12 12 12 12 12 12 12 11 11 11 11 11 11 11 11 10 10 10 10 10 10 10 10 9 9 9 9 9 9 9 9 9 9 9 9 9
14 14 14 13 13 12 12 12 11 11 11 11 11 11 11 11 11 11 10 10 10 10 10 9 9 9 9 9 9 9 9 9 9 9 9 8 8 8 8 9 9 9 9
14 14 13 13 12 12 12 11 11 11 10 10 10 10 10 10 10 10 10 9 9 9 8 8 8 8 8 8 8 8 8 8 8 8 8 8 8 8 8 8 8 8 8
14 14 13 13 12 12 11 11 11 10 10 10 9 9 9 9 9 9 9 8 8 8 8 7 7 7 7 7 7 7 7 7 7 7 7 7 7 7 7 7 7 7 7
13 13 13 12 11 11 11 10 10 10 9 9 9 9 9 8 8 8 7 7 7 7 6 6 6 6 6 6 6 6 6 5 6 6 6 6 6 6 6 6 6 6 6
12 12 11 11 11 10 10 10 9 9 9 8 8 8 8 7 7 7 6 6 6 6 5 5 5 5 5 5 5 5 5 5 5 5 5 5 5 4 4 4 4 4 5
11 11 11 10 10 10 9 9 8 8 8 8 7 7 7 6 6 6 6 5 5 5 5 5 4 4 4 4 4 4 4 4 4 4 3 3 3 3 3 3 3 3 3
11 10 10 9 9 9 8 8 8 8 7 7 7 6 6 6 5 5 5 5 4 4 4 4 4 4 3 3 3 3 3 3 3 3 3 2 2 2 2 2 2 2 2
10 9 9 8 8 8 8 7 7 7 7 6 6 6 5 5 5 4 4 4 4 3 3 3 3 3 3 3 3 2 2 3 2 2 2 2 2 1 1 1 1 1 1
9 8 8 8 7 7 7 7 6 6 6 5 5 5 5 4 4 4 3 3 3 3 3 3 3 2 2 2 2 2 2 2 2 2 1 1 1 1 1 1 0 0 0
Wind_Speed
3 2 2 2 3 3 3 4 4 4 4 5 4 4 4 3 2 2 2 1 1 0 1 1 2 2 2 2 2 2 2 2 2 2 1 1 2 2 2 3 3 5 6
3 3 2 2 2 3 3 4 4 4 4 4 4 4 3 3 2 2 2 2 1 0 0 1 2 1 2 2 2 3 2 3 3 3 2 1 2 2 2 3 3 3 4
4 3 3 3 2 3 3 4 4 4 3 3 3 4 3 2 2 2 2 2 1 1 0 1 1 2 2 2 3 3 2 2 2 3 3 2 2 2 2 3 3 3 4
4 4 3 2 2 3 3 3 3 3 3 3 3 3 3 3 2 2 2 2 1 0 0 1 1 1 2 2 3 3 3 3 3 3 3 3 2 2 3 3 3 3 3
5 4 3 3 2 2 2 2 3 3 3 3 3 3 3 3 3 3 2 1 1 0 0 0 1 1 3 2 3 3 3 3 3 3 3 3 3 3 3 2 3 3 4
6 5 3 3 2 2 2 2 2 2 3 3 3 3 3 2 4 4 4 1 1 0 1 0 0 1 2 2 3 3 4 4 4 4 4 4 4 4 3 3 4 4 3
7 5 4 4 3 2 2 2 2 2 2 3 3 3 2 3 3 3 4 2 1 1 1 1 0 0 2 3 4 6 5 6 6 6 6 6 5 4 4 5 5 5 5
7 6 5 4 3 3 3 2 3 2 2 2 3 3 2 3 3 3 4 3 1 1 1 1 1 1 1 2 3 3 4 4 5 6 6 6 5 4 5 6 6 5 5
8 7 6 5 4 3 3 3 3 3 2 3 2 3 3 2 1 2 5 2 2 1 1 1 2 2 2 3 3 3 3 3 3 5 6 6 5 6 6 5 5 5 5
8 7 6 5 4 4 4 3 3 3 3 3 3 3 3 3 2 2 5 2 2 2 1 1 1 2 2 3 4 4 4 3 3 3 5 6 6 6 9 8 7 6 5
8 7 6 5 5 4 4 3 3 3 3 4 3 3 3 3 1 1 3 3 3 3 2 2 1 1 2 3 6 4 4 5 5 4 4 4 4 4 5 6 6 6 7
7 7 6 5 4 4 4 3 3 3 4 3 3 3 3 2 1 1 2 4 5 3 3 2 1 2 2 3 3 3 4 5 4 4 4 4 4 4 4 5 6 6 7
8 7 6 6 5 4 3 3 3 3 3 3 3 3 3 2 1 2 3 4 4 4 3 2 3 2 4 3 2 3 4 4 3 4 4 4 3 4 4 4 5 5 6
9 8 7 6 5 4 3 2 2 2 3 3 3 3 3 2 2 2 2 2 3 4 3 2 4 3 3 2 2 2 3 2 3 4 4 4 3 3 4 4 4 4 5
9 8 7 6 5 4 3 1 1 1 2 3 3 3 3 3 4 6 4 3 3 2 2 1 1 1 1 1 1 2 2 2 3 3 4 4 4 4 4 4 3 4 5
8 8 6 6 5 5 4 4 4 3 5 4 4 4 2 3 5 5 4 4 4 2 1 0 1 1 2 3 3 3 3 3 4 4 4 4 4 4 5 4 4 4 5
9 7 6 6 6 5 5 5 4 4 4 5 5 5 4 5 5 4 3 3 3 1 1 1 1 2 2 3 3 3 3 4 4 4 4 4 4 5 5 5 5 5 6
9 7 6 6 5 5 5 5 4 4 3 3 5 6 6 6 5 4 2 1 3 3 3 3 3 3 3 3 3 3 3 4 4 4 4 5 5 5 5 6 6 6 7
8 7 6 6 5 5 5 4 4 4 3 3 3 5 5 4 5 5 3 3 3 3 3 3 3 3 3 3 4 4 4 4 5 5 5 5 5 6 6 6 7 7 7
7 6 6 6 6 5 5 5 4 4 4 3 2 2 2 2 3 4 4 4 4 4 4 4 4 4 4 4 4 4 4 4 5 5 5 6 6 6 7 8 7 7 7
7 8 8 6 6 5 5 5 5 4 4 3 3 3 3 2 3 3 3 3 3 3 3 3 3 4 4 4 4 5 5 5 5 6 6 6 7 7 7 7 8 8 8
7 7 7 6 6 6 6 5 5 5 5 5 4 4 3 2 3 3 3 3 3 3 2 2 2 3 3 4 4 5 5 5 6 6 7 7 7 8 8 8 8 8 9
7 7 7 6 6 7 6 6 5 5 5 5 4 4 3 3 3 2 2 2 2 2 2 2 2 3 3 4 4 4 5 5 6 7 8 8 8 8 8 9 10 10 10
7 8 8 7 7 6 6 6 6 5 5 5 4 4 3 3 2 2 1 1 1 2 2 2 3 3 5 4 5 5 6 8 9 8 10 9 9 8 8 9 9 11 11
7 7 7 7 7 6 6 6 6 6 5 5 4 3 3 2 2 1 1 0 1 1 2 3 3 3 5 6 6 6 7 9 10 11 10 9 9 9 10 10 9 10 10
7 7 6 6 6 6 6 6 6 6 5 4 4 3 3 2 1 1 1 1 1 2 3 3 4 5 7 6 7 8 8 9 11 13 12 9 9 9 10 9 11 11 11
Wind_Direction
234 246 260 284 307 316 326 337 333 331 335 340 343 345 346 344 340 333 332 345 313 290 231 239 242 247 237 227 226 226 237 246 240 266 281 249 231 234 225 236 235 230 216
222 238 257 283 294 306 321 330 332 332 333 338 341 344 347 346 343 338 340 338 337 327 218 238 243 232 241 240 233 228 229 237 232 246 259 268 269 246 245 247 245 237 237
210 228 245 260 284 300 316 325 329 332 333 337 336 339 339 339 337 334 331 317 306 293 257 235 244 225 227 225 228 228 230 232 235 242 262 282 271 253 251 249 240 238 243
207 220 236 253 273 290 305 317 325 331 334 337 332 336 335 336 329 325 318 314 305 329 289 260 259 251 245 236 233 228 228 230 229 230 239 247 257 257 254 256 257 242 242
202 213 224 233 248 279 301 310 318 324 325 334 336 338 342 339 354 341 329 330 328 53 27 331 331 343 348 312 281 254 236 233 234 234 237 241 244 245 256 268 269 268 257
200 206 212 230 243 274 289 302 319 313 317 333 341 346 350 356 17 350 319 329 331 52 64 11 202 205 207 236 280 300 294 260 248 245 245 245 251 253 258 259 266 266 264
198 198 207 220 233 259 274 284 292 294 313 319 335 338 342 6 12 343 313 309 306 321 348 4 1 329 253 244 217 217 235 244 259 268 262 259 258 255 257 255 252 257 268
198 200 203 219 232 248 263 275 280 293 302 306 323 327 328 350 4 331 296 273 279 280 287 283 280 295 305 289 261 254 260 247 241 249 262 269 271 266 256 260 266 263 273
198 203 203 211 225 239 251 263 275 283 288 291 306 306 303 316 13 324 293 275 269 270 277 294 295 294 51 308 266 263 272 265 220 244 280 284 295 273 258 251 247 248 265
198 203 202 209 219 231 244 258 266 271 278 283 287 289 294 305 25 334 295 274 278 275 258 241 92 328 354 297 271 269 274 287 284 259 245 236 245 234 221 237 245 247 259
193 196 198 203 214 226 237 246 255 262 273 278 283 283 286 297 303 326 297 281 285 288 287 284 350 93 311 294 285 285 304 301 283 277 277 273 262 254 242 242 243 247 253
185 190 195 202 209 216 224 240 250 257 262 270 278 284 281 268 280 309 278 278 300 284 287 296 356 68 299 285 284 324 308 284 271 270 275 279 280 278 272 270 264 256 255
181 187 193 196 198 209 218 227 239 246 263 276 282 289 294 301 247 204 242 250 261 265 284 8 355 320 279 249 222 277 273 269 275 277 283 292 298 298 294 289 282 274 273
184 189 190 195 196 195 204 228 241 259 266 275 285 293 300 302 322 321 290 253 222 238 254 196 205 233 247 286 283 260 280 301 295 290 295 295 294 288 283 285 287 288 283
187 189 190 191 191 187 170 151 234 46 346 306 301 305 311 312 2 357 323 314 312 311 294 262 278 295 303 325 329 334 325 318 306 302 299 299 299 294 292 291 287 287 284
188 190 190 188 185 184 171 146 81 70 67 47 13 346 12 20 13 15 14 12 8 338 265 196 17 3 353 350 349 348 344 341 333 325 318 314 309 307 306 301 291 285 286
189 188 187 190 187 187 187 186 169 144 121 75 54 44 33 20 20 20 29 38 34 17 85 47 29 16 2 355 353 350 345 342 335 328 323 321 318 312 307 303 299 294 289
188 183 184 184 188 190 191 194 195 192 175 136 96 75 63 55 43 29 6 129 81 70 55 41 29 18 12 4 358 353 349 345 339 335 333 330 324 317 312 309 304 304 300
183 181 180 181 182 184 185 186 187 187 180 161 140 116 105 101 85 51 37 64 66 62 55 47 36 25 16 11 4 358 354 350 347 341 338 333 328 322 317 312 309 308 301
177 163 170 174 175 177 178 179 176 173 168 160 147 122 122 114 83 72 67 63 63 59 51 46 38 28 20 15 7 360 355 355 351 344 341 335 329 324 320 317 315 312 307
169 163 168 174 173 171 169 167 163 159 151 138 117 80 47 107 93 84 78 73 66 58 49 40 34 25 17 8 1 357 355 352 349 342 337 333 330 325 320 316 314 312 310
168 168 171 169 164 162 158 157 154 150 146 139 128 119 117 116 102 93 84 74 63 53 41 27 21 22 11 1 354 350 348 346 345 339 333 329 326 322 321 319 319 318 314
166 163 162 160 157 152 158 157 156 154 150 146 142 136 131 120 111 100 89 75 61 44 29 15 6 7 4 359 355 348 343 342 336 329 324 321 319 317 316 315 313 313 312
162 162 160 159 160 165 164 161 159 157 156 155 153 149 141 134 128 118 100 75 47 26 15 5 357 351 348 346 344 346 350 346 335 326 322 316 313 312 311 310 309 310 310
161 161 162 164 165 167 166 165 164 164 164 165 163 160 159 157 154 150 129 67 357 347 344 339 337 336 333 331 331 338 352 347 336 327 318 311 309 309 309 308 307 307 306
162 163 165 165 167 169 171 170 170 168 170 171 172 172 174 179 185 194 223 285 307 311 315 319 322 322 319 320 332 339 336 329 324 318 311 305 302 302 305 303 303 302 302
Height
1508 1508 1507 1506 1505 1504 1503 1501 1500 1498 1496 1494 1492 1491 1489 1487 1486 1485 1485 1484 1484 1484 1485 1485 1485 1486 1487 1487 1488 1489 1490 1491 1492 1492 1493 1493 1494 1495 1495 1496 1497 1498 1500
1507 1507 1506 1505 1504 1504 1503 1501 1500 1498 1496 1494 1492 1491 1489 1487 1486 1486 1485 1484 1484 1484 1484 1484 1485 1485 1485 1486 1487 1488 1488 1489 1490 1490 1491 1491 1492 1492 1493 1493 1494 1495 1496
1505 1505 1505 1505 1504 1503 1502 1500 1499 1498 1496 1494 1492 1491 1489 1488 1486 1486 1485 1484 1484 1484 1484 1484 1484 1484 1485 1485 1486 1486 1487 1488 1488 1488 1489 1489 1490 1490 1490 1491 1492 1492 1493
1504 1504 1504 1503 1503 1502 1501 1500 1499 1497 1496 1494 1492 1491 1489 1488 1487 1486 1485 1485 1484 1483 1483 1483 1483 1483 1484 1484 1485 1485 1486 1486 1486 1487 1487 1487 1488 1488 1488 1489 1489 1489 1490
1502 1503 1503 1502 1502 1501 1500 1499 1498 1496 1495 1494 1492 1491 1489 1487 1486 1485 1485 1484 1484 1483 1483 1483 1482 1482 1482 1483 1483 1484 1484 1485 1485 1485 1485 1486 1486 1486 1486 1486 1486 1486 1487
1501 1501 1501 1501 1501 1500 1499 1498 1497 1496 1495 1494 1492 1491 1489 1487 1486 1485 1484 1484 1484 1483 1483 1482 1482 1481 1481 1481 1481 1482 1482 1483 1483 1483 1483 1483 1483 1484 1483 1483 1484 1484 1484
1499 1499 1499 1500 1499 1499 1498 1497 1496 1496 1494 1493 1492 1491 1489 1488 1486 1485 1484 1484 1483 1483 1483 1482 1481 1481 1480 1480 1480 1480 1480 1480 1480 1481 1481 1481 1481 1481 1481 1481 1481 1481 1480
1496 1497 1498 1498 1498 1498 1497 1496 1496 1495 1494 1493 1492 1490 1489 1487 1486 1485 1484 1484 1483 1483 1482 1481 1481 1480 1480 1479 1479 1479 1479 1478 1478 1478 1478 1478 1478 1478 1478 1478 1477 1477 1477
1494 1495 1495 1496 1496 1496 1496 1495 1495 1494 1493 1492 1491 1490 1488 1487 1486 1485 1484 1483 1483 1483 1482 1481 1480 1480 1479 1478 1478 1477 1477 1476 1476 1475 1475 1475 1474 1474 1474 1474 1474 1474 1474
1491 1492 1493 1494 1494 1494 1494 1494 1493 1493 1492 1491 1490 1489 1488 1487 1486 1484 1483 1483 1483 1482 1481 1480 1479 1478 1478 1477 1477 1476 1476 1475 1474 1473 1473 1472 1472 1471 1471 1471 1471 1471 1471
1488 1489 1490 1491 1492 1492 1492 1492 1492 1491 1490 1490 1489 1488 1487 1486 1484 1483 1482 1482 1481 1481 1480 1480 1478 1477 1476 1475 1475 1475 1474 1473 1472 1472 1471 1471 1470 1469 1469 1468 1468 1468 1467
1485 1486 1487 1488 1489 1489 1489 1490 1489 1489 1489 1488 1487 1487 1485 1484 1483 1482 1481 1480 1479 1479 1478 1478 1477 1475 1475 1474 1473 1472 1472 1471 1471 1470 1469 1469 1468 1467 1466 1465 1464 1464 1463
1482 1483 1485 1486 1486 1487 1487 1487 1487 1487 1487 1486 1486 1485 1484 1483 1481 1480 1479 1478 1477 1477 1476 1475 1474 1474 1473 1472 1471 1471 1470 1470 1469 1468 1468 1467 1466 1464 1463 1462 1461 1460 1460
1479 1480 1482 1483 1484 1484 1484 1484 1484 1484 1484 1484 1483 1483 1482 1481 1479 1478 1477 1476 1475 1475 1474 1473 1472 1472 1471 1470 1470 1469 1468 1468 1467 1466 1465 1464 1463 1461 1460 1459 1458 1457 1456
1476 1477 1479 1479 1480 1481 1481 1481 1481 1481 1481 1481 1480 1480 1479 1478 1477 1476 1475 1474 1473 1472 1472 1471 1471 1470 1470 1469 1468 1467 1466 1465 1465 1464 1463 1461 1460 1459 1458 1457 1455 1454 1453
1472 1474 1475 1476 1477 1478 1478 1478 1478 1478 1478 1477 1477 1477 1476 1475 1474 1473 1472 1471 1471 1470 1470 1469 1469 1468 1468 1467 1466 1465 1464 1463 1462 1461 1460 1459 1458 1457 1455 1454 1453 1451 1450
1468 1470 1471 1472 1474 1474 1475 1476 1476 1476 1475 1475 1474 1474 1473 1473 1472 1471 1470 1469 1469 1468 1468 1467 1467 1466 1465 1465 1464 1463 1462 1461 1460 1459 1458 1457 1455 1454 1453 1451 1450 1448 1447
1464 1465 1467 1468 1470 1471 1472 1473 1473 1474 1474 1473 1472 1471 1471 1470 1470 1469 1468 1468 1467 1466 1466 1465 1465 1464 1463 1462 1462 1461 1460 1458 1457 1456 1455 1454 1453 1451 1450 1449 1447 1446 1444
1459 1461 1463 1464 1466 1467 1468 1469 1470 1470 1471 1471 1470 1469 1469 1468 1467 1467 1466 1466 1466 1465 1464 1464 1463 1462 1461 1460 1459 1458 1457 1456 1455 1454 1452 1451 1450 1449 1447 1446 1444 1442 1441
1455 1457 1458 1460 1462 1463 1465 1466 1467 1467 1468 1468 1468 1467 1467 1467 1466 1465 1465 1464 1464 1463 1463 1462 1462 1461 1460 1458 1457 1456 1455 1454 1453 1451 1450 1448 1447 1445 1444 1442 1440 1438 1436
1451 1452 1454 1457 1458 1460 1461 1462 1463 1464 1464 1465 1465 1464 1464 1465 1465 1464 1463 1463 1463 1462 1462 1461 1460 1459 1458 1457 1455 1454 1453 1452 1450 1449 1447 1445 1443 1442 1440 1438 1436 1435 1432
1446 1449 1451 1453 1454 1456 1457 1459 1460 1461 1462 1462 1462 1463 1462 1463 1463 1463 1462 1462 1461 1461 1460 1459 1459 1457 1456 1455 1454 1452 1451 1449 1447 1445 1443 1441 1440 1438 1436 1434 1432 1430 1428
1442 1445 1447 1449 1451 1452 1454 1456 1457 1458 1459 1460 1460 1461 1461 1461 1461 1461 1461 1460 1460 1459 1458 1457 1456 1455 1454 1453 1451 1449 1448 1446 1444 1442 1440 1438 1436 1434 1432 1430 1428 1426 1424
1438 1441 1443 1445 1447 1449 1451 1453 1454 1455 1456 1457 1458 1459 1459 1459 1459 1459 1459 1458 1458 1457 1456 1455 1454 1452 1451 1449 1448 1446 1444 1442 1440 1438 1436 1434 1432 1430 1428 1426 1423 1421 1419
1435 1437 1440 1442 1444 1446 1448 1450 1451 1452 1454 1455 1456 1456 1457 1457 1457 1457 1456 1456 1455 1454 1453 1452 1450 1449 1447 1446 1444 1442 1440 1438 1436 1434 1432 1429 1427 1425 1423 1421 1419 1416 1414
1432 1434 1436 1438 1441 1443 1445 1447 1448 1449 1451 1452 1453 1454 1454 1454 1454 1454 1453 1452 1451 1450 1449 1448 1446 1445 1443 1442 1440 1438 1436 1433 1431 1429 1427 1424 1422 1420 1418 1416 1414 1412 1409